Погода в Аргахтахе

Россия / Республика Саха (Якутия)     68°26′34″N   153°22′33″E
темп.,
°C
ветер,
м/с
пор.,
м/с
влажн.,
%
обл.,
%
осадки,
мм/ч
давл.,
гПа
погр.,
м
3 марта, ср
ср323:00−38зюз111009 0.0 102719
02:00−38юз1110057 0.0 102619
05:00−38ююз1110060 0.0 102619
08:00−39ююв1210078 0.0 102519
11:00−35юв129385 0.0 102494
14:00−33в2390100 0.0 1022254
17:00−33всв2395100 0.0 102041
20:00−34св3396100 0.0 101929
4 марта, чт
чт423:00−35ссв449997 0.1 101631
02:00−37ссв459999 0.0 101447
05:00−35с589799 0.1 1011243
08:00−33с71097100 0.1 1007314
11:00−32ссз81194100 0.2 1003399
14:00−30с91393100 0.0 998550
17:00−27ссз91397100 0.3 994679
20:00−24ссз101697100 1.3 991619
5 марта, пт
пт523:00−22с111597100 2.8 989683
02:00−23с101497100 1.1 988826
05:00−23с91496100 1.6 988717
08:00−23ссз91495100 0.3 988669
11:00−21с111494100 0.6 989882
14:00−20с111393100 0.3 9901039
17:00−20с111495100 0.7 991950
20:00−20с101692100 0.4 994731
6 марта, сб
сб623:00−21с101596100 0.7 996699
02:00−21с91397100 0.6 999760
05:00−23с101496100 1.2 1000719
08:00−24с91495100 0.4 1001802
11:00−24с101394100 0.9 10021001
14:00−24с101294100 0.4 1002996
17:00−25с91295100 0.8 1002955
20:00−25с81296100 0.3 1003809
7 марта, вс
вс723:00−25с71196100 0.5 1004707
02:00−26с61197100 0.3 1004520
05:00−26с51096100 0.4 1006405
08:00−28с5897100 0.1 1009148
11:00−26с6992100 0.1 1010582
14:00−26с6991100 0.0 1011535
17:00−28ссз61094100 0.0 1012206
20:00−32сз6109283 0.0 1013135